Regional Weather Roundup
Issued by NWS San Diego, CA

Home | Current Version | Previous Version | Text Only | Print | Product List | Glossary On
Versions: 1 2 3 4 5 6 7 8 9 10 11 12 13 14 15 16 17 18 19 20 21 22 23 24 25 26 27 28 29 30 31 32 33 34 35 36 37 38 39 40 41 42 43 44 45 46 47 48 49 50
000
ASUS46 KSGX 192210
RWRSGX

SAN DIEGO HOURLY WEATHER ROUNDUP
NATIONAL WEATHER SERVICE SAN DIEGO CA
300 PM PDT FRI SEP 19 2014

NOTE: "FAIR" INDICATES FEW OR NO CLOUDS BELOW 12,000 FEET WITH NO
SIGNIFICANT WEATHER AND/OR OBSTRUCTIONS TO VISIBILITY.

CAZ042-043-060-061-PZZ750-775-192300-

GREATER SAN DIEGO AREA

CITY           SKY/WX    TMP DP  RH WIND       PRES   REMARKS
LINDBERGH FLD  MOSUNNY   77  61  57 W14       29.86F
POINT LOMA       N/A     74  61  63 NW20        N/A
NATIONAL CITY    N/A     77  65  66 NW7       29.85F
CHULA VISTA      N/A     76  66  69 W12       29.78F
IMPERIAL BEACH MOSUNNY   76  63  64 NW15      29.85F
BROWN FIELD    SUNNY     76  62  62 NW10      29.85F
MIRAMAR MCAS   MOSUNNY   78  59  51 W13       29.85F
MONTGOMERY FLD SUNNY     77  61  57 W14       29.85F

$$

NORTH SAN DIEGO COUNTY

CITY           SKY/WX    TMP DP  RH WIND       PRES   REMARKS
CAMP PENDLETON MOSUNNY   77  60  55 SW12G17   29.84S
OCEANSIDE AP   SUNNY     77  61  57 W9G20     29.84F
OCEANSIDE HBR    N/A     73  65  75 W12       29.87F
VISTA            N/A     77  64  65 W6        29.82F
CARLSBAD       SUNNY     75  61  61 W9        29.85S
DEL MAR          N/A     76  65  69 W3        29.87F
LA JOLLA SCRIP   N/A     73  65  77 W9        29.82F
FALLBROOK        N/A     81  64  54 SW3       29.82F
ESCONDIDO        N/A     80  64  58 NW9       29.85S
SAN MARCOS       N/A     77  64  63 W10       29.82F
POWAY            N/A     82  64  55 W3        29.84S

$$

EAST SAN DIEGO COUNTY

CITY           SKY/WX    TMP DP  RH WIND       PRES   REMARKS
RAMONA         SUNNY     80  60  50 W16       29.86F
SANTEE LAKES     N/A     79  64  59 W13       29.84S
LA MESA          N/A     78  65  65 W15       29.78F
JAMUL            N/A     80  65  59 W10       29.81F
MT. LAGUNA OBS   N/A     71  41  34 W1        29.66F
CAMPO            N/A     83  52  34 SW14      29.85F

$$

ORANGE COUNTY AND THE LOS ANGELES BASIN

CITY           SKY/WX    TMP DP  RH WIND       PRES   REMARKS
JOHN WAYNE AP  MOSUNNY   79  60  52 S9        29.84F
LAGUNA BEACH     N/A    N/A  18   0 W3        29.81F
LAKE FOREST FR   N/A     82  60  46 W1        29.73F
SANTA ANA        N/A     83  66  55 S6        29.79F
HUNTINGTON BCH   N/A     78  65  64 S7        29.87F
LOS ALAMITOS   MOSUNNY   79  62  55 S8        29.84F
FULLERTON      SUNNY     81  59  47 SW10      29.82F
LONG BEACH     SUNNY     78  60  53 S8        29.84F
L.A. AP        MOSUNNY   74  60  61 W13       29.85F
L.A. DOWNTOWN  SUNNY     77  61  57 W7        29.84F

$$

THE INLAND EMPIRE

CITY           SKY/WX    TMP DP  RH WIND       PRES   REMARKS
CORONA         SUNNY     85  61  44 W13G21    29.83F
CHINO          MOSUNNY   86  59  39 W8        29.84F
ONTARIO        MOSUNNY   84  56  38 S6        29.83F
SAN BERNARDINO MOSUNNY   82  52  34 CALM      29.84F
RIVERSIDE AP   SUNNY     85  59  41 W8        29.83F
RIV CYN CREST    N/A     83  66  56 NW3       29.81F
MORENO VALLEY    N/A     84  62  47 SW5       29.03F
MARCH ARB      MOSUNNY   83  58  42 NW8       29.85F
HORSETHIEF CYN   N/A     84  55  37 N3        29.83F
PERRIS           N/A     85  58  41 W1        29.81F
MENIFEE          N/A     85  58  40 SE6       29.89F
HEMET EAST       N/A     83  56  38 CALM      29.81F
FRENCH VALLEY  FAIR      82  57  42 CALM      29.85F
TEMECULA         N/A     86  62  44 W6        29.78F

$$

SAN BERNARDINO AND RIVERSIDE COUNTY MOUNTAINS

CITY           SKY/WX    TMP DP  RH WIND       PRES   REMARKS
BIG BEAR AP    SUNNY     68  41  37 NE10G16   30.12S
ANGELUS OAKS     N/A     69  55  60 CALM      29.74S
PINE COVE        N/A     66  55  67 NW1       29.74S

$$

SOUTHERN DESERT INCLUDING THE COACHELLA VALLEY

CITY           SKY/WX    TMP DP  RH WIND       PRES   REMARKS
PALM SPRINGS   SUNNY     96  47  18 E5        29.76F
THOUSAND PALMS   N/A     96  54  24 E2        29.71F
PALM DESERT      N/A     99  57  24 SE1       26.42  HX  98
THERMAL        SUNNY     98  52  21 SE9       29.69F HX  95
BLYTHE         SUNNY     98  52  21 SE8       29.73F HX  95
IMPERIAL AP    SUNNY     97  52  21 SE7       29.71F
EL CENTRO NAS  MOSUNNY   97  52  21 SE5       29.70F
YUMA AZ        MOSUNNY   98  49  18 SE6       29.73F HX  95
MEXICALI       SUNNY     97  48  19 E2        29.73

$$

UPPER DESERT

CITY           SKY/WX    TMP DP  RH WIND       PRES   REMARKS
VICTORVILLE AP SUNNY     86  43  22 SE9       29.89F
HESPERIA         N/A     86  50  28 SW3       29.88F
APPLE VALLEY     N/A     85  44  23 S2        29.95F
PALMDALE       SUNNY     85  41  21 VRB5      29.88F
LANCASTER      SUNNY     86  42  21 VRB6      29.87F
EDWARDS AFB    MOSUNNY   85  40  20 VRB1      29.85F
DAGGETT        SUNNY     89  46  22 VRB3      29.84F
29 PALMS N     SUNNY     91  47  21 VRB7G20   29.89F
NEEDLES        SUNNY    100  38  11 SW15      29.75F HX  95

$$

REGIONAL REPORTS

CITY           SKY/WX    TMP DP  RH WIND       PRES   REMARKS
SANTA BARBARA  SUNNY     76  61  59 W7        29.86F
SANDBERG       SUNNY     79  53  40 S10G18    30.00F
MT. WILSON       N/A     70  57  64 MISG        N/A
LAS VEGAS NV   MOSUNNY   96  38  13 E7        29.79F
PHOENIX AZ     MOSUNNY   96  61  31 W7        29.75F HX  96
TIJUANA        SUNNY     75  59  57 NW17      29.87

$$

OFFSHORE ISLANDS

CITY           SKY/WX    TMP DP  RH WIND       PRES   REMARKS
CATALINA ARPT  SUNNY     70  57  63 S8        29.90F
SAN CLEMENTE I MOSUNNY   72  59  63 SW13      29.89F
SAN NICOLAS IS PTSUNNY   70  57  63 NW10      29.88F

$$

MARINE AND OFFSHORE BUOY REPORTS

STATION/POSITION SKY/WX   TEMP    WIND        PRES    SWELL
                          AIR SEA DIR/SP/G            HT/PER/DIR
                          (F)     (DEG/KT/KT) (MB)    (FT/S/D)
TANNER BANKS               67 71  290/  8/ 10 1012.3F   5/290/10
S CLEMENTE BASIN           69 75  280/ 10/ 14 1011.2F   5/210/14
SAN NICOLAS IS.               69                N/A     3/180/14
SO. S. ROSA ISLA           67 70  310/ 12/ 14 1011.2F   7/11
W. S. BARBARA CH           63 62  320/  4/  6 1011.1F   5/310/11
M. S. BARBARA CH           66 67  270/  6/  8 1012.0F
S. MONICA BASIN            70 73  210/  6/  6 1011.3F   5/200/15
S PEDRO CHANNEL               74                N/A     3/170/14
DANA POINT                    72                N/A     2/210/13
CMP PENDLETON NS              72                N/A     2/220/15
OCEANSIDE OFFSHR              74                N/A     3/220/15
TORREY PINES OTR              74                N/A     3/210/14
LA JOLLA 1                 73 73  300/  9/ 10 1011.1F
MISSION BAY BUOY              72                N/A     2/200/14
SAN DIEGO BAY                 76              1011.3F

$$



USA.gov is the U.S. government's official web portal to all federal, state and local government web resources and services.